(413268) = 2003 TY47 = 2011 DR26

Discovered at Kitt Peak on 2003-09-19 by Spacewatch.

Orbit

Orbit type: Main Belt

Note: WebGL enabled browser required.

epoch2023-02-25.0
epoch JD2460000.5
perihelion date2020-02-07.75250
perihelion JD2458887.25250
argument of perihelion (°)52.44822
ascending node (°)329.11042
inclination (°)9.18663
eccentricity0.0773459
perihelion distance (AU)2.8274207
Tisserand w.r.t. Jupiter3.2
ΔV w.r.t. Earth (km/sec)10.8
semimajor axis (AU)3.0644427
mean anomaly (°)204.53532
mean daily motion (°/day)0.18372850
aphelion distance (AU)3.301
period (years)5.36
P-vector [x]0.92482142
P-vector [y]0.27877819
P-vector [z]0.25882052
Q-vector [x]-0.37146671
Q-vector [y]0.80843662
Q-vector [z]0.45655526
absolute magnitude16.64
phase slope0.15
uncertainty0
referenceMPO 745323
observations used136
oppositions11
arc length (days)7215
first opposition used2003
last opposition used2023
residual rms (arc-secs)0.71
perturbers coarse indicatorM-v
perturbers precise indicator003Ek
first observation date used2003-09-19.0
last observation date used2023-06-21.0
computer nameMPCLINUX
Minimum Orbit Intersection Distances (in AU)
for orbit epoch: 2460000.5, reference: E2023-M85
Mercury2.48722
Venus2.11673
Earth1.83809
Mars1.40683
Jupiter2.10633
Saturn6.05066
Uranus15.1897
Neptune27.0608

Observations

139 total observations over interval: 2003 09 19.22664 – 2023 06 21.307693
These data are available for download (format description).

